TimeCET,TemperatureF,Dew PointF,Humidity,Sea Level PressureIn,VisibilityMPH,Wind Direction,Wind SpeedMPH,Gust SpeedMPH,PrecipitationIn,Events,Conditions,WindDirDegrees,DateUTC
12:20 AM,26.6,24.8,93,29.92,4.3,WNW,3.5,-,N/A,,Unknown,300,2013-01-31 23:20:00
12:50 AM,24.8,23.0,93,29.95,5.6,Variable,3.5,-,N/A,Fog,Patches of Fog,0,2013-01-31 23:50:00
1:00 AM,25,24,92,30.04,6,,4.5,,,,,,2013-02-01 00:00:00
1:20 AM,24.8,23.0,93,29.95,6.2,NW,3.5,-,N/A,,Unknown,310,2013-02-01 00:20:00
1:50 AM,24.8,24.8,100,29.92,6.2,WNW,4.6,-,N/A,,Unknown,300,2013-02-01 00:50:00
2:20 AM,26.6,24.8,93,29.92,6.2,SW,4.6,-,N/A,,Partly Cloudy,230,2013-02-01 01:20:00
2:50 AM,23.0,21.2,93,29.95,5.6,Variable,2.3,-,N/A,,Unknown,0,2013-02-01 01:50:00
3:20 AM,23.0,23.0,100,29.95,6.2,NW,3.5,-,N/A,,Unknown,320,2013-02-01 02:20:00
3:50 AM,24.8,23.0,93,29.95,6.2,NW,6.9,-,N/A,,Partly Cloudy,310,2013-02-01 02:50:00
4:00 AM,25,24,93,30.04,6,NW,6.7,,,,Scattered Clouds,310,2013-02-01 03:00:00
4:20 AM,24.8,23.0,93,29.95,6.2,East,4.6,-,N/A,,Partly Cloudy,100,2013-02-01 03:20:00
4:50 AM,23.0,23.0,100,29.95,6.2,Variable,1.2,-,N/A,,Scattered Clouds,0,2013-02-01 03:50:00
5:20 AM,19.4,19.4,100,29.95,6.2,Variable,2.3,-,N/A,,Partly Cloudy,0,2013-02-01 04:20:00
5:50 AM,23.0,21.2,93,29.95,6.2,WNW,4.6,-,N/A,,Partly Cloudy,300,2013-02-01 04:50:00
6:20 AM,23.0,21.2,93,29.95,6.2,Variable,2.3,-,N/A,,Partly Cloudy,0,2013-02-01 05:20:00
6:50 AM,23.0,21.2,93,29.95,4.3,NNW,2.3,-,N/A,,Scattered Clouds,330,2013-02-01 05:50:00
7:00 AM,22,21,96,30.06,4,NNW,2.2,,,,Scattered Clouds,330,2013-02-01 06:00:00
7:20 AM,23.0,21.2,93,29.95,4.3,WNW,4.6,-,N/A,,Scattered Clouds,300,2013-02-01 06:20:00
7:50 AM,23.0,21.2,93,29.95,5.0,WSW,3.5,-,N/A,,Scattered Clouds,250,2013-02-01 06:50:00
8:20 AM,23.0,21.2,93,29.95,5.0,WNW,5.8,-,N/A,,Mostly Cloudy,300,2013-02-01 07:20:00
8:50 AM,24.8,23.0,93,29.95,5.0,WNW,4.6,-,N/A,,Mostly Cloudy,290,2013-02-01 07:50:00
9:20 AM,24.8,23.0,93,29.95,5.0,Variable,1.2,-,N/A,,Mostly Cloudy,0,2013-02-01 08:20:00
9:50 AM,26.6,24.8,93,29.95,6.2,NE,2.3,-,N/A,,Mostly Cloudy,50,2013-02-01 08:50:00
10:00 AM,27,24,85,30.04,7,NE,2.2,,,,Scattered Clouds,50,2013-02-01 09:00:00
10:20 AM,26.6,24.8,93,29.92,6.2,Variable,1.2,-,N/A,,Mostly Cloudy,0,2013-02-01 09:20:00
10:50 AM,30.2,26.6,86,29.92,-9999.0,Variable,1.2,-,N/A,,Clear,0,2013-02-01 09:50:00
11:20 AM,28.4,26.6,93,29.92,-9999.0,East,4.6,-,N/A,,Clear,80,2013-02-01 10:20:00
11:50 AM,30.2,26.6,86,29.89,-9999.0,Variable,2.3,-,N/A,,Clear,0,2013-02-01 10:50:00
12:20 PM,30.2,26.6,86,29.89,-9999.0,East,3.5,-,N/A,,Clear,80,2013-02-01 11:20:00
12:50 PM,32.0,28.4,87,29.86,-9999.0,Variable,2.3,-,N/A,,Clear,0,2013-02-01 11:50:00
1:00 PM,32,28,79,29.94,9,,2.2,,,,Scattered Clouds,,2013-02-01 12:00:00
1:20 PM,33.8,28.4,81,29.86,-9999.0,Variable,1.2,-,N/A,,Clear,0,2013-02-01 12:20:00
1:50 PM,33.8,28.4,81,29.83,-9999.0,Variable,2.3,-,N/A,,Clear,0,2013-02-01 12:50:00
2:20 PM,33.8,28.4,81,29.80,6.2,Variable,1.2,-,N/A,,Mostly Cloudy,0,2013-02-01 13:20:00
2:50 PM,35.6,28.4,75,29.77,6.2,East,2.3,-,N/A,,Mostly Cloudy,80,2013-02-01 13:50:00
3:20 PM,35.6,30.2,81,29.74,6.2,Variable,2.3,-,N/A,,Mostly Cloudy,0,2013-02-01 14:20:00
3:50 PM,35.6,28.4,75,29.74,6.2,Variable,2.3,-,N/A,,Mostly Cloudy,0,2013-02-01 14:50:00
4:00 PM,35,29,71,29.80,16,,2.2,,,,Scattered Clouds,,2013-02-01 15:00:00
4:20 PM,33.8,28.4,81,29.71,6.2,Variable,2.3,-,N/A,,Mostly Cloudy,0,2013-02-01 15:20:00
4:50 PM,35.6,28.4,75,29.71,6.2,Variable,2.3,-,N/A,,Mostly Cloudy,0,2013-02-01 15:50:00
5:20 PM,32.0,28.4,87,29.68,6.2,Variable,1.2,-,N/A,,Mostly Cloudy,0,2013-02-01 16:20:00
5:50 PM,32.0,28.4,87,29.68,6.2,Variable,1.2,-,N/A,,Mostly Cloudy,0,2013-02-01 16:50:00
6:20 PM,30.2,28.4,93,29.68,6.2,Variable,1.2,-,N/A,,Mostly Cloudy,0,2013-02-01 17:20:00
6:50 PM,30.2,28.4,93,29.65,6.2,NNW,2.3,-,N/A,,Mostly Cloudy,330,2013-02-01 17:50:00
7:00 PM,30,28,87,29.73,9,NNW,2.2,,,,Scattered Clouds,330,2013-02-01 18:00:00
7:20 PM,30.2,28.4,93,29.62,6.2,WNW,3.5,-,N/A,,Mostly Cloudy,300,2013-02-01 18:20:00
7:50 PM,30.2,28.4,93,29.62,6.2,WNW,5.8,-,N/A,,Mostly Cloudy,300,2013-02-01 18:50:00
8:20 PM,30.2,28.4,93,29.59,6.2,NW,4.6,-,N/A,,Mostly Cloudy,310,2013-02-01 19:20:00
8:50 PM,30.2,28.4,93,29.56,6.2,Variable,1.2,-,N/A,,Mostly Cloudy,0,2013-02-01 19:50:00
9:20 PM,30.2,28.4,93,29.56,6.2,NW,3.5,-,N/A,,Mostly Cloudy,310,2013-02-01 20:20:00
9:50 PM,30.2,28.4,93,29.56,6.2,Variable,2.3,-,N/A,,Mostly Cloudy,0,2013-02-01 20:50:00
10:00 PM,31,28,84,29.63,7,,2.2,,,,Scattered Clouds,,2013-02-01 21:00:00
10:20 PM,30.2,28.4,93,29.53,6.2,NW,4.6,-,N/A,,Mostly Cloudy,320,2013-02-01 21:20:00
10:50 PM,30.2,28.4,93,29.50,6.2,Variable,2.3,-,N/A,,Mostly Cloudy,0,2013-02-01 21:50:00
11:20 PM,30.2,28.4,93,29.50,6.2,WNW,3.5,-,N/A,,Mostly Cloudy,290,2013-02-01 22:20:00
11:50 PM,30.2,28.4,93,29.47,6.2,WNW,4.6,-,N/A,,Mostly Cloudy,300,2013-02-01 22:50:00